QPF
0.00 0.00 0.00 0.00 0.00 0.00 0.00 0.00 0.00 0.00 0.00 0.00 0.00 0.00 0.00 0.00 0.00 0.00 0.00 0.00 0.00 0.00 0.00 0.00 0.00 0.00 0.00 0.00 0.00 0.00 0.00 0.00 0.00 0.00 0.00 0.00 0.00 0.00 0.00 0.00 0.00 0.00 0.00 0.00
0.00 0.00 0.00 0.00 0.00 0.00 0.00 0.00 0.00 0.00 0.00 0.00 0.00 0.00 0.00 0.00 0.00 0.00 0.00 0.00 0.00 0.00 0.00 0.00 0.00 0.00 0.00 0.00 0.00 0.00 0.00 0.00 0.00 0.00 0.00 0.00 0.00 0.00 0.00 0.00 0.00 0.00 0.01 0.01
0.00 0.00 0.00 0.00 0.00 0.00 0.00 0.00 0.00 0.00 0.00 0.00 0.00 0.00 0.00 0.00 0.00 0.00 0.00 0.00 0.00 0.00 0.00 0.00 0.00 0.00 0.00 0.00 0.00 0.00 0.00 0.00 0.00 0.00 0.00 0.00 0.00 0.00 0.00 0.00 0.00 0.00 0.01 0.01
0.00 0.00 0.00 0.00 0.00 0.00 0.00 0.00 0.00 0.00 0.00 0.00 0.00 0.00 0.00 0.00 0.00 0.00 0.00 0.00 0.00 0.00 0.00 0.00 0.00 0.00 0.00 0.00 0.00 0.00 0.00 0.00 0.00 0.00 0.00 0.00 0.00 0.00 0.00 0.00 0.00 0.00 0.00 0.01
0.00 0.00 0.00 0.00 0.00 0.00 0.00 0.00 0.00 0.00 0.00 0.00 0.00 0.00 0.00 0.00 0.00 0.00 0.00 0.00 0.00 0.00 0.00 0.00 0.00 0.00 0.00 0.00 0.00 0.00 0.00 0.00 0.00 0.00 0.00 0.00 0.00 0.00 0.00 0.00 0.00 0.00 0.00 0.01
0.00 0.00 0.00 0.00 0.00 0.00 0.00 0.00 0.00 0.00 0.00 0.00 0.00 0.00 0.00 0.00 0.00 0.00 0.00 0.00 0.00 0.00 0.00 0.00 0.00 0.00 0.00 0.00 0.00 0.00 0.00 0.00 0.00 0.00 0.00 0.00 0.00 0.00 0.00 0.00 0.00 0.00 0.00 0.00
0.00 0.00 0.00 0.00 0.00 0.00 0.00 0.00 0.00 0.00 0.00 0.00 0.00 0.00 0.00 0.00 0.00 0.00 0.00 0.00 0.00 0.00 0.00 0.00 0.00 0.00 0.00 0.00 0.00 0.00 0.00 0.00 0.00 0.00 0.00 0.00 0.00 0.00 0.00 0.00 0.00 0.00 0.00 0.00
0.00 0.00 0.00 0.00 0.00 0.00 0.00 0.00 0.00 0.00 0.00 0.00 0.00 0.00 0.00 0.00 0.00 0.00 0.00 0.00 0.00 0.00 0.00 0.00 0.00 0.00 0.00 0.00 0.00 0.00 0.00 0.00 0.00 0.00 0.00 0.00 0.00 0.00 0.00 0.00 0.00 0.00 0.00 0.00
0.00 0.00 0.00 0.00 0.00 0.00 0.00 0.00 0.00 0.00 0.00 0.00 0.00 0.00 0.00 0.00 0.00 0.00 0.00 0.00 0.00 0.00 0.00 0.00 0.00 0.00 0.00 0.00 0.00 0.00 0.00 0.00 0.00 0.00 0.00 0.00 0.00 0.00 0.00 0.00 0.00 0.00 0.00 0.00
0.00 0.00 0.00 0.00 0.00 0.00 0.00 0.00 0.00 0.00 0.00 0.00 0.00 0.00 0.00 0.00 0.00 0.00 0.00 0.00 0.00 0.00 0.00 0.00 0.00 0.00 0.00 0.00 0.00 0.00 0.00 0.00 0.00 0.00 0.00 0.00 0.00 0.00 0.00 0.00 0.00 0.00 0.00 0.00
0.00 0.00 0.00 0.00 0.00 0.00 0.00 0.00 0.00 0.00 0.00 0.00 0.00 0.00 0.00 0.00 0.00 0.00 0.00 0.00 0.00 0.00 0.00 0.00 0.00 0.00 0.00 0.00 0.00 0.00 0.00 0.00 0.00 0.00 0.00 0.00 0.00 0.00 0.00 0.00 0.00 0.00 0.00 0.00
0.00 0.00 0.00 0.00 0.00 0.00 0.00 0.00 0.00 0.00 0.00 0.00 0.00 0.00 0.00 0.00 0.00 0.00 0.00 0.00 0.00 0.00 0.00 0.00 0.00 0.00 0.00 0.00 0.00 0.00 0.00 0.00 0.00 0.00 0.00 0.00 0.00 0.00 0.00 0.00 0.00 0.00 0.00 0.00
0.00 0.00 0.00 0.00 0.00 0.00 0.00 0.00 0.00 0.00 0.00 0.00 0.00 0.00 0.00 0.00 0.00 0.00 0.00 0.00 0.00 0.00 0.00 0.00 0.00 0.00 0.00 0.00 0.00 0.00 0.00 0.00 0.00 0.00 0.00 0.00 0.00 0.00 0.00 0.00 0.00 0.00 0.00 0.00
0.00 0.00 0.00 0.00 0.00 0.00 0.00 0.00 0.00 0.00 0.00 0.00 0.00 0.00 0.00 0.00 0.00 0.00 0.00 0.00 0.00 0.00 0.00 0.00 0.00 0.00 0.00 0.00 0.00 0.00 0.00 0.00 0.00 0.00 0.00 0.00 0.00 0.00 0.00 0.00 0.00 0.00 0.00 0.00
0.00 0.00 0.00 0.00 0.00 0.00 0.00 0.00 0.00 0.00 0.00 0.00 0.00 0.00 0.00 0.00 0.00 0.00 0.00 0.00 0.00 0.00 0.00 0.00 0.00 0.00 0.00 0.00 0.00 0.00 0.00 0.00 0.00 0.00 0.00 0.00 0.00 0.00 0.00 0.00 0.00 0.00 0.00 0.00
0.01 0.00 0.00 0.00 0.00 0.00 0.00 0.00 0.00 0.00 0.00 0.00 0.00 0.00 0.00 0.00 0.00 0.00 0.00 0.00 0.00 0.00 0.00 0.00 0.00 0.00 0.00 0.00 0.00 0.00 0.00 0.00 0.00 0.00 0.00 0.00 0.00 0.00 0.00 0.00 0.00 0.00 0.00 0.00
0.03 0.02 0.02 0.02 0.01 0.02 0.01 0.00 0.00 0.00 0.00 0.00 0.00 0.00 0.00 0.00 0.00 0.00 0.00 0.00 0.00 0.00 0.00 0.00 0.00 0.00 0.00 0.00 0.00 0.00 0.00 0.00 0.00 0.00 0.00 0.00 0.00 0.00 0.00 0.00 0.00 0.00 0.00 0.00
0.06 0.06 0.09 0.07 0.05 0.07 0.01 0.00 0.00 0.00 0.00 0.00 0.00 0.00 0.00 0.00 0.00 0.00 0.00 0.00 0.00 0.00 0.00 0.00 0.00 0.00 0.00 0.00 0.00 0.00 0.00 0.00 0.00 0.00 0.00 0.00 0.00 0.00 0.00 0.00 0.00 0.00 0.00 0.00
0.06 0.08 0.14 0.14 0.10 0.04 0.00 0.00 0.00 0.00 0.00 0.00 0.00 0.00 0.00 0.00 0.00 0.00 0.00 0.00 0.00 0.00 0.00 0.00 0.00 0.00 0.00 0.00 0.00 0.00 0.00 0.00 0.00 0.00 0.00 0.00 0.00 0.00 0.00 0.00 0.00 0.00 0.00 0.00
0.06 0.09 0.14 0.15 0.10 0.03 0.00 0.00 0.00 0.00 0.00 0.00 0.00 0.00 0.00 0.00 0.00 0.00 0.00 0.00 0.00 0.00 0.00 0.00 0.00 0.00 0.00 0.00 0.00 0.00 0.00 0.00 0.00 0.00 0.00 0.00 0.00 0.00 0.00 0.00 0.00 0.00 0.00 0.00
0.06 0.12 0.15 0.12 0.07 0.02 0.00 0.00 0.00 0.00 0.00 0.00 0.00 0.00 0.00 0.00 0.00 0.00 0.00 0.00 0.00 0.00 0.00 0.00 0.00 0.00 0.00 0.00 0.00 0.00 0.00 0.00 0.00 0.00 0.00 0.00 0.00 0.00 0.00 0.00 0.00 0.00 0.00 0.00
0.02 0.05 0.07 0.06 0.05 0.01 0.00 0.00 0.00 0.00 0.00 0.00 0.00 0.00 0.00 0.00 0.00 0.00 0.00 0.00 0.00 0.00 0.00 0.00 0.00 0.00 0.00 0.00 0.00 0.00 0.00 0.00 0.00 0.00 0.00 0.00 0.00 0.00 0.00 0.00 0.00 0.00 0.00 0.00
0.00 0.01 0.01 0.02 0.02 0.00 0.00 0.00 0.00 0.00 0.00 0.00 0.00 0.00 0.00 0.00 0.00 0.00 0.00 0.00 0.00 0.00 0.00 0.00 0.00 0.00 0.00 0.00 0.00 0.00 0.00 0.00 0.00 0.00 0.00 0.00 0.00 0.00 0.00 0.00 0.00 0.00 0.00 0.00
0.00 0.00 0.00 0.00 0.00 0.00 0.00 0.00 0.00 0.00 0.00 0.00 0.00 0.00 0.00 0.00 0.00 0.00 0.00 0.00 0.00 0.00 0.00 0.00 0.00 0.00 0.00 0.00 0.00 0.00 0.00 0.00 0.00 0.00 0.00 0.00 0.00 0.00 0.00 0.00 0.00 0.00 0.00 0.00
0.00 0.00 0.00 0.00 0.00 0.00 0.00 0.00 0.00 0.00 0.00 0.00 0.00 0.00 0.00 0.00 0.00 0.00 0.00 0.00 0.00 0.00 0.00 0.00 0.00 0.00 0.00 0.00 0.00 0.00 0.00 0.00 0.00 0.00 0.00 0.00 0.00 0.00 0.00 0.00 0.01 0.01 0.01 0.01
0.00 0.00 0.00 0.00 0.00 0.00 0.00 0.00 0.00 0.00 0.00 0.00 0.00 0.00 0.00 0.00 0.00 0.00 0.00 0.00 0.00 0.00 0.00 0.00 0.00 0.00 0.00 0.00 0.00 0.00 0.00 0.00 0.00 0.00 0.00 0.00 0.00 0.01 0.01 0.01 0.01 0.02 0.02 0.02
MSLP
1015.49 1016.27 1016.97 1017.57 1018.08 1018.50 1018.85 1019.16 1019.42 1019.65 1019.81 1019.88 1019.86 1019.71 1019.45 1019.09 1018.67 1018.23 1017.82 1017.48 1017.24 1017.09 1017.04 1017.06 1017.12 1017.21 1017.31 1017.43 1017.58 1017.78 1018.04 1018.39 1018.81 1019.29 1019.79 1020.29 1020.75 1021.14 1021.46 1021.71 1021.93 1022.13 1022.35 1022.63
1015.94 1016.63 1017.23 1017.74 1018.18 1018.56 1018.92 1019.26 1019.59 1019.87 1020.08 1020.19 1020.15 1019.95 1019.61 1019.15 1018.62 1018.08 1017.60 1017.20 1016.92 1016.76 1016.70 1016.70 1016.74 1016.78 1016.83 1016.88 1016.96 1017.10 1017.34 1017.67 1018.11 1018.64 1019.20 1019.77 1020.28 1020.71 1021.05 1021.30 1021.49 1021.65 1021.83 1022.06
1016.28 1016.87 1017.37 1017.81 1018.19 1018.57 1018.95 1019.34 1019.73 1020.08 1020.33 1020.44 1020.38 1020.12 1019.69 1019.13 1018.50 1017.88 1017.33 1016.90 1016.62 1016.46 1016.42 1016.44 1016.47 1016.50 1016.50 1016.50 1016.52 1016.61 1016.80 1017.12 1017.56 1018.10 1018.70 1019.30 1019.85 1020.31 1020.67 1020.92 1021.09 1021.22 1021.35 1021.53
1016.47 1016.96 1017.38 1017.77 1018.14 1018.54 1018.98 1019.44 1019.91 1020.31 1020.60 1020.71 1020.60 1020.27 1019.75 1019.09 1018.37 1017.67 1017.08 1016.64 1016.37 1016.25 1016.25 1016.30 1016.37 1016.40 1016.40 1016.37 1016.35 1016.38 1016.53 1016.80 1017.21 1017.73 1018.32 1018.92 1019.48 1019.95 1020.30 1020.55 1020.71 1020.82 1020.93 1021.05
1016.47 1016.88 1017.25 1017.63 1018.03 1018.50 1019.02 1019.59 1020.14 1020.61 1020.93 1021.03 1020.87 1020.47 1019.85 1019.09 1018.29 1017.53 1016.91 1016.47 1016.23 1016.16 1016.22 1016.34 1016.45 1016.52 1016.53 1016.49 1016.45 1016.44 1016.53 1016.74 1017.09 1017.56 1018.10 1018.66 1019.18 1019.63 1019.98 1020.22 1020.37 1020.47 1020.55 1020.65
1016.28 1016.63 1016.99 1017.40 1017.88 1018.45 1019.10 1019.78 1020.43 1020.96 1021.30 1021.39 1021.18 1020.71 1020.00 1019.16 1018.28 1017.49 1016.85 1016.42 1016.22 1016.21 1016.34 1016.53 1016.71 1016.83 1016.88 1016.85 1016.79 1016.75 1016.78 1016.93 1017.20 1017.57 1018.03 1018.52 1018.98 1019.39 1019.70 1019.93 1020.07 1020.17 1020.25 1020.33
1015.91 1016.24 1016.63 1017.10 1017.69 1018.39 1019.16 1019.97 1020.71 1021.30 1021.66 1021.73 1021.49 1020.95 1020.18 1019.27 1018.36 1017.54 1016.90 1016.51 1016.35 1016.41 1016.61 1016.87 1017.12 1017.29 1017.37 1017.37 1017.31 1017.24 1017.23 1017.30 1017.48 1017.76 1018.11 1018.51 1018.89 1019.23 1019.50 1019.70 1019.84 1019.94 1020.02 1020.10
1015.43 1015.77 1016.21 1016.77 1017.47 1018.29 1019.19 1020.10 1020.91 1021.54 1021.91 1021.96 1021.68 1021.10 1020.30 1019.37 1018.46 1017.65 1017.06 1016.71 1016.61 1016.73 1016.99 1017.31 1017.61 1017.83 1017.95 1017.96 1017.91 1017.83 1017.77 1017.79 1017.89 1018.07 1018.33 1018.62 1018.91 1019.17 1019.39 1019.55 1019.68 1019.77 1019.85 1019.93
1014.90 1015.27 1015.77 1016.43 1017.23 1018.15 1019.13 1020.10 1020.94 1021.58 1021.94 1021.97 1021.67 1021.08 1020.28 1019.39 1018.52 1017.78 1017.26 1016.98 1016.96 1017.14 1017.45 1017.81 1018.14 1018.39 1018.53 1018.56 1018.51 1018.43 1018.35 1018.32 1018.36 1018.48 1018.64 1018.84 1019.04 1019.23 1019.38 1019.50 1019.59 1019.67 1019.74 1019.81
1014.39 1014.82 1015.38 1016.10 1016.97 1017.94 1018.95 1019.91 1020.74 1021.34 1021.66 1021.66 1021.36 1020.79 1020.06 1019.25 1018.50 1017.88 1017.48 1017.31 1017.37 1017.61 1017.96 1018.34 1018.69 1018.94 1019.08 1019.12 1019.08 1018.99 1018.91 1018.86 1018.87 1018.93 1019.03 1019.16 1019.28 1019.39 1019.47 1019.53 1019.57 1019.61 1019.65 1019.69
1013.98 1014.45 1015.06 1015.82 1016.70 1017.65 1018.62 1019.52 1020.26 1020.78 1021.04 1021.00 1020.71 1020.21 1019.58 1018.93 1018.35 1017.91 1017.68 1017.66 1017.83 1018.14 1018.52 1018.91 1019.24 1019.47 1019.60 1019.63 1019.58 1019.50 1019.43 1019.38 1019.38 1019.42 1019.48 1019.55 1019.60 1019.64 1019.64 1019.63 1019.60 1019.57 1019.56 1019.54
1013.66 1014.18 1014.82 1015.57 1016.41 1017.30 1018.16 1018.93 1019.54 1019.94 1020.11 1020.04 1019.78 1019.37 1018.89 1018.44 1018.09 1017.89 1017.86 1018.02 1018.31 1018.70 1019.12 1019.50 1019.81 1020.01 1020.10 1020.11 1020.06 1019.98 1019.92 1019.89 1019.89 1019.92 1019.96 1019.98 1019.98 1019.95 1019.87 1019.77 1019.66 1019.54 1019.44 1019.35
1013.43 1013.98 1014.62 1015.34 1016.10 1016.87 1017.58 1018.19 1018.64 1018.91 1018.99 1018.89 1018.67 1018.38 1018.09 1017.87 1017.77 1017.82 1018.04 1018.39 1018.83 1019.30 1019.75 1020.13 1020.40 1020.56 1020.61 1020.59 1020.52 1020.45 1020.40 1020.38 1020.40 1020.43 1020.45 1020.45 1020.39 1020.29 1020.13 1019.93 1019.72 1019.50 1019.30 1019.12
1013.24 1013.79 1014.41 1015.07 1015.74 1016.37 1016.93 1017.37 1017.66 1017.80 1017.80 1017.69 1017.53 1017.37 1017.27 1017.30 1017.46 1017.78 1018.23 1018.77 1019.35 1019.90 1020.39 1020.76 1021.00 1021.12 1021.13 1021.08 1021.00 1020.93 1020.89 1020.89 1020.91 1020.94 1020.95 1020.91 1020.81 1020.64 1020.39 1020.10 1019.79 1019.47 1019.17 1018.89
1013.02 1013.57 1014.15 1014.74 1015.32 1015.83 1016.25 1016.55 1016.71 1016.75 1016.70 1016.60 1016.51 1016.49 1016.58 1016.83 1017.23 1017.78 1018.44 1019.14 1019.85 1020.48 1020.99 1021.36 1021.57 1021.66 1021.65 1021.58 1021.49 1021.42 1021.39 1021.40 1021.43 1021.45 1021.44 1021.36 1021.21 1020.96 1020.64 1020.27 1019.86 1019.46 1019.07 1018.71
1012.74 1013.26 1013.80 1014.34 1014.84 1015.26 1015.59 1015.79 1015.88 1015.87 1015.81 1015.75 1015.74 1015.85 1016.10 1016.53 1017.13 1017.86 1018.67 1019.50 1020.28 1020.96 1021.50 1021.86 1022.06 1022.13 1022.11 1022.03 1021.95 1021.89 1021.87 1021.88 1021.91 1021.92 1021.88 1021.76 1021.56 1021.25 1020.87 1020.43 1019.95 1019.48 1019.03 1018.62
1012.41 1012.88 1013.38 1013.87 1014.32 1014.70 1014.98 1015.15 1015.22 1015.22 1015.19 1015.19 1015.28 1015.50 1015.88 1016.44 1017.16 1018.00 1018.90 1019.79 1020.61 1021.31 1021.84 1022.21 1022.41 1022.48 1022.46 1022.41 1022.34 1022.30 1022.30 1022.31 1022.33 1022.31 1022.24 1022.09 1021.83 1021.48 1021.05 1020.56 1020.05 1019.54 1019.05 1018.61
1012.07 1012.49 1012.94 1013.40 1013.83 1014.20 1014.48 1014.67 1014.78 1014.83 1014.87 1014.95 1015.13 1015.44 1015.91 1016.54 1017.32 1018.19 1019.10 1019.99 1020.80 1021.48 1022.00 1022.35 1022.56 1022.65 1022.66 1022.64 1022.62 1022.61 1022.62 1022.64 1022.64 1022.61 1022.50 1022.30 1022.01 1021.62 1021.16 1020.65 1020.12 1019.61 1019.12 1018.68
1011.82 1012.17 1012.57 1012.99 1013.41 1013.79 1014.11 1014.35 1014.53 1014.66 1014.80 1014.97 1015.23 1015.61 1016.12 1016.78 1017.55 1018.39 1019.26 1020.09 1020.84 1021.47 1021.96 1022.30 1022.52 1022.65 1022.70 1022.73 1022.75 1022.78 1022.82 1022.84 1022.83 1022.77 1022.62 1022.39 1022.06 1021.65 1021.18 1020.66 1020.15 1019.65 1019.18 1018.76
1011.75 1012.02 1012.35 1012.73 1013.13 1013.52 1013.87 1014.17 1014.43 1014.66 1014.89 1015.16 1015.49 1015.92 1016.45 1017.10 1017.82 1018.59 1019.38 1020.12 1020.79 1021.35 1021.80 1022.13 1022.36 1022.51 1022.62 1022.70 1022.77 1022.84 1022.89 1022.91 1022.88 1022.79 1022.61 1022.34 1021.98 1021.55 1021.07 1020.58 1020.08 1019.61 1019.18 1018.78
1011.91 1012.09 1012.34 1012.66 1013.02 1013.39 1013.76 1014.11 1014.44 1014.75 1015.07 1015.42 1015.82 1016.29 1016.83 1017.45 1018.12 1018.81 1019.49 1020.14 1020.71 1021.21 1021.61 1021.92 1022.16 1022.34 1022.49 1022.61 1022.72 1022.81 1022.87 1022.88 1022.82 1022.69 1022.46 1022.15 1021.76 1021.31 1020.84 1020.36 1019.89 1019.46 1019.05 1018.69
1012.29 1012.38 1012.55 1012.78 1013.07 1013.41 1013.76 1014.13 1014.50 1014.88 1015.27 1015.69 1016.16 1016.66 1017.22 1017.82 1018.44 1019.07 1019.67 1020.23 1020.73 1021.16 1021.52 1021.81 1022.05 1022.25 1022.42 1022.56 1022.69 1022.78 1022.81 1022.79 1022.68 1022.49 1022.21 1021.85 1021.42 1020.96 1020.48 1020.01 1019.57 1019.16 1018.79 1018.45
1012.82 1012.83 1012.90 1013.05 1013.25 1013.52 1013.83 1014.19 1014.58 1015.00 1015.46 1015.95 1016.48 1017.04 1017.63 1018.24 1018.85 1019.44 1019.99 1020.50 1020.94 1021.32 1021.64 1021.91 1022.14 1022.33 1022.49 1022.63 1022.73 1022.78 1022.77 1022.68 1022.50 1022.24 1021.89 1021.46 1021.00 1020.51 1020.02 1019.56 1019.14 1018.76 1018.41 1018.10
1013.38 1013.32 1013.31 1013.37 1013.49 1013.69 1013.95 1014.29 1014.69 1015.14 1015.65 1016.21 1016.81 1017.44 1018.09 1018.74 1019.37 1019.97 1020.51 1020.99 1021.41 1021.76 1022.05 1022.29 1022.49 1022.65 1022.77 1022.86 1022.90 1022.88 1022.78 1022.60 1022.33 1021.97 1021.53 1021.04 1020.52 1020.00 1019.50 1019.04 1018.64 1018.28 1017.97 1017.68
1013.80 1013.71 1013.65 1013.65 1013.71 1013.86 1014.10 1014.42 1014.84 1015.34 1015.91 1016.55 1017.23 1017.95 1018.68 1019.39 1020.08 1020.71 1021.27 1021.76 1022.16 1022.50 1022.76 1022.95 1023.10 1023.20 1023.25 1023.25 1023.20 1023.07 1022.85 1022.55 1022.16 1021.70 1021.17 1020.61 1020.03 1019.48 1018.97 1018.51 1018.13 1017.80 1017.53 1017.29
1013.96 1013.88 1013.82 1013.81 1013.88 1014.03 1014.28 1014.64 1015.10 1015.66 1016.31 1017.04 1017.82 1018.64 1019.45 1020.25 1021.00 1021.67 1022.26 1022.76 1023.16 1023.47 1023.69 1023.83 1023.90 1023.91 1023.86 1023.74 1023.56 1023.29 1022.94 1022.50 1021.99 1021.42 1020.80 1020.17 1019.54 1018.97 1018.45 1018.01 1017.66 1017.38 1017.16 1016.99
Thickness
5644 5639 5638 5645 5652 5653 5646 5647 5652 5658 5663 5664 5664 5668 5677 5687 5690 5692 5696 5699 5702 5707 5715 5716 5716 5715 5713 5711 5710 5709 5706 5704 5700 5695 5692 5689 5687 5684 5680 5677 5673 5669 5665 5660
5630 5632 5641 5642 5643 5642 5642 5644 5648 5653 5656 5656 5660 5662 5673 5682 5689 5694 5698 5701 5703 5706 5710 5714 5715 5714 5714 5714 5712 5711 5709 5707 5704 5701 5697 5693 5689 5686 5682 5677 5673 5670 5666 5661
5628 5635 5635 5636 5636 5638 5640 5639 5644 5646 5648 5646 5651 5657 5668 5681 5686 5691 5693 5696 5699 5702 5707 5711 5714 5714 5713 5712 5713 5713 5711 5709 5706 5702 5696 5690 5686 5682 5679 5677 5674 5670 5665 5661
5623 5627 5628 5629 5628 5632 5630 5639 5641 5640 5635 5630 5639 5633 5657 5668 5673 5686 5692 5693 5695 5700 5704 5707 5710 5712 5712 5712 5712 5711 5710 5707 5704 5699 5694 5690 5687 5684 5682 5678 5673 5669 5664 5660
5617 5619 5623 5624 5628 5631 5629 5629 5629 5630 5627 5622 5626 5626 5646 5657 5669 5682 5688 5689 5690 5694 5699 5702 5704 5706 5707 5706 5706 5705 5704 5702 5699 5695 5692 5688 5685 5682 5677 5672 5668 5664 5660 5656
5612 5617 5622 5625 5624 5625 5616 5615 5609 5603 5606 5609 5619 5617 5634 5650 5668 5677 5681 5681 5682 5685 5690 5693 5695 5697 5697 5697 5697 5697 5696 5695 5692 5690 5686 5683 5680 5675 5670 5665 5661 5657 5654 5650
5601 5608 5614 5617 5613 5613 5616 5606 5594 5596 5590 5595 5608 5610 5630 5657 5664 5667 5670 5671 5673 5676 5679 5681 5684 5685 5686 5686 5686 5686 5686 5684 5682 5681 5678 5675 5672 5667 5663 5659 5654 5650 5646 5642
5591 5595 5607 5612 5614 5610 5610 5612 5595 5587 5584 5588 5598 5601 5631 5652 5657 5659 5661 5663 5666 5669 5669 5671 5671 5672 5673 5674 5674 5674 5674 5672 5670 5669 5666 5664 5661 5657 5654 5650 5646 5643 5640 5636
5596 5594 5601 5606 5612 5613 5603 5601 5600 5584 5568 5581 5590 5602 5624 5648 5653 5656 5658 5659 5660 5660 5660 5660 5660 5660 5660 5661 5660 5660 5660 5659 5657 5656 5654 5651 5648 5645 5642 5639 5636 5633 5630 5627
5598 5586 5588 5593 5599 5599 5603 5595 5583 5581 5575 5580 5594 5602 5618 5640 5646 5648 5649 5650 5651 5651 5650 5649 5648 5648 5647 5647 5647 5647 5647 5645 5644 5642 5640 5638 5636 5633 5631 5627 5624 5622 5619 5615
5592 5580 5569 5578 5586 5589 5587 5589 5589 5581 5578 5574 5577 5599 5621 5630 5634 5635 5636 5637 5638 5638 5636 5635 5635 5634 5633 5633 5633 5632 5632 5631 5630 5628 5627 5625 5622 5620 5618 5615 5612 5610 5607 5605
5581 5572 5558 5567 5576 5582 5589 5588 5584 5580 5574 5576 5582 5597 5622 5620 5622 5623 5623 5623 5623 5622 5620 5619 5618 5618 5618 5617 5617 5616 5615 5615 5613 5613 5612 5610 5608 5606 5604 5602 5600 5598 5596 5594
5572 5560 5548 5552 5559 5565 5573 5578 5581 5580 5570 5558 5569 5593 5609 5609 5610 5611 5609 5607 5604 5603 5602 5600 5600 5600 5599 5599 5599 5599 5598 5597 5597 5596 5595 5594 5592 5590 5589 5587 5586 5585 5583 5581
5564 5554 5558 5562 5572 5566 5562 5568 5571 5573 5568 5567 5577 5593 5600 5599 5599 5598 5595 5590 5586 5586 5584 5582 5581 5580 5579 5579 5579 5579 5578 5578 5578 5578 5578 5576 5574 5573 5572 5571 5570 5569 5568 5567
5550 5546 5551 5558 5559 5557 5564 5563 5560 5567 5577 5576 5585 5584 5592 5591 5588 5585 5579 5575 5572 5570 5568 5566 5564 5562 5561 5561 5560 5559 5558 5558 5558 5559 5558 5557 5556 5555 5555 5555 5554 5553 5552 5551
5537 5535 5536 5536 5539 5543 5548 5554 5559 5567 5572 5572 5575 5579 5587 5581 5572 5568 5565 5561 5557 5554 5551 5549 5547 5546 5544 5543 5542 5541 5540 5539 5539 5539 5538 5537 5537 5537 5537 5537 5536 5536 5536 5535
5519 5518 5518 5515 5516 5522 5523 5548 5550 5553 5558 5565 5570 5582 5570 5563 5560 5555 5549 5545 5541 5538 5535 5533 5530 5529 5527 5525 5524 5522 5521 5521 5520 5520 5520 5519 5519 5519 5519 5519 5519 5518 5518 5518
5509 5505 5503 5499 5501 5507 5549 5550 5549 5549 5554 5555 5562 5564 5561 5556 5541 5534 5533 5529 5526 5524 5520 5517 5514 5513 5510 5508 5507 5506 5505 5505 5505 5504 5503 5502 5501 5501 5501 5501 5501 5500 5500 5499
5500 5498 5494 5495 5499 5504 5522 5532 5532 5534 5541 5548 5548 5542 5532 5524 5518 5513 5515 5514 5511 5509 5505 5502 5499 5497 5494 5492 5490 5489 5489 5489 5488 5487 5485 5484 5482 5483 5483 5483 5482 5481 5481 5481
5485 5488 5485 5483 5486 5491 5523 5524 5522 5526 5524 5536 5532 5525 5515 5513 5513 5506 5500 5497 5494 5492 5488 5485 5483 5480 5478 5476 5474 5473 5472 5470 5470 5468 5466 5464 5463 5462 5462 5462 5462 5461 5460 5460
5476 5474 5477 5473 5475 5483 5502 5504 5509 5507 5522 5515 5513 5511 5504 5504 5503 5492 5484 5481 5479 5476 5473 5470 5467 5463 5461 5459 5457 5455 5453 5452 5451 5449 5447 5446 5444 5443 5443 5443 5442 5440 5439 5439
5475 5473 5470 5464 5465 5479 5490 5485 5498 5501 5491 5487 5487 5487 5484 5478 5475 5472 5469 5466 5462 5458 5456 5453 5449 5445 5443 5440 5438 5437 5435 5435 5433 5430 5429 5427 5426 5424 5424 5423 5423 5420 5418 5417
5456 5468 5466 5470 5477 5475 5472 5479 5479 5473 5470 5469 5468 5467 5465 5461 5458 5455 5453 5448 5444 5441 5437 5433 5430 5427 5424 5421 5418 5416 5416 5414 5413 5411 5409 5408 5408 5406 5404 5403 5402 5400 5397 5394
5426 5435 5442 5445 5450 5451 5452 5454 5454 5455 5455 5453 5452 5450 5448 5444 5441 5437 5432 5428 5424 5421 5416 5413 5410 5408 5405 5402 5398 5395 5394 5393 5391 5390 5389 5388 5388 5388 5386 5383 5381 5378 5376 5372
5417 5415 5421 5425 5426 5427 5433 5437 5437 5436 5435 5434 5433 5432 5430 5427 5422 5418 5412 5408 5404 5400 5396 5392 5389 5387 5385 5382 5378 5374 5372 5371 5369 5369 5369 5368 5367 5367 5366 5364 5361 5358 5356 5351
5402 5411 5417 5422 5422 5421 5424 5422 5421 5420 5418 5416 5414 5410 5408 5406 5401 5397 5391 5386 5381 5376 5372 5368 5366 5364 5362 5360 5358 5354 5350 5348 5347 5349 5349 5347 5347 5346 5344 5343 5342 5340 5337 5334